Regional Weather Roundup
Issued by NWS Kansas City/Pleasant Hill, MO

Home | Current Version | Previous Version | Graphics & Text | Print | Product List | Glossary Off
Versions: 1 2 3 4 5 6 7 8 9 10 11 12 13 14 15 16 17 18 19 20 21 22 23 24 25 26 27 28 29 30 31 32 33 34 35 36 37 38 39 40 41 42 43 44 45 46 47 48 49 50

000
ASUS43 KEAX 281511
RWREAX

WEATHER ROUNDUP FOR EASTERN KANSAS AND NORTHWEST MISSOURI
NATIONAL WEATHER SERVICE KANSAS CITY/PLEASANT HILL MO
1000 AM CDT THU MAY 28 2015

KSZ040-057-103>105-MOZ028-029-037-043-281600-
...KANSAS CITY METROPOLITAN AREA...

CITY           SKY/WX    TMP DP  RH WIND       PRES   REMARKS
K.C. INTL      CLOUDY    66  64  93 E12       30.07F
K.C. DOWNTOWN  CLOUDY    67  62  84 E8        30.07S
LEES SUMMIT    CLOUDY    66  62  87 NE7       30.09S
OLATHE - IXD   CLOUDY    67  63  87 E8        30.09R
OLATHE - OJC   CLOUDY    67  64  90 NE9       30.08R
LAWRENCE       LGT RAIN  67  64  90 E10       30.07S

$$

MOZ001>008-011>017-020>025-030>033-038>040-044>046-053-054-281600-
...NORTHERN AND CENTRAL MISSOURI...

CITY           SKY/WX    TMP DP  RH WIND       PRES   REMARKS
ST. JOSEPH     CLOUDY    66  64  93 E7        30.06F
MOSBY          CLOUDY    64  63  94 NE6       30.08F
WARRENSBURG    MOSUNNY   72  63  73 CALM      30.09F
WHITEMAN AFB   PTSUNNY   72  64  77 SE3       30.09F
CLINTON        MOSUNNY   75  66  73 CALM      30.09F
SEDALIA        MOSUNNY   73  65  75 S7        30.11F
WARSAW         NOT AVBL
CHILLICOTHE      N/A     65  61  87 W6        30.15R
KIRKSVILLE     CLOUDY    70  62  76 SE10      30.14F

$$

MOZ041-047>049-056>058-063>065-088>090-097-281600-
...EASTERN AND SOUTHERN MISSOURI...

CITY           SKY/WX    TMP DP  RH WIND       PRES   REMARKS
ST. LOUIS INTL PTSUNNY   77  61  57 E12       30.14F
SPIRIT OF STL  PTSUNNY   74  68  81 SE12      30.13F
COLUMBIA       PTSUNNY   72  62  71 SE8       30.12F
JEFFERSON CITY CLOUDY    74  64  71 E8        30.11F
ROLLA          MOSUNNY   72  68  87 SE8       30.12F
OSAGE BEACH    CLOUDY    72  66  83 SE8       30.11F
SPRINGFIELD    CLOUDY    73  67  81 S10       30.12R
BRANSON        CLOUDY    70  66  88 SE5       30.14S
JOPLIN         CLOUDY    74  67  78 SE5       30.09S
WEST PLAINS    CLOUDY    70  66  87 SE7       30.16S

$$

IAZ060-094-KSZ022-034>040-054-083-096-NEZ052-066-093-281600-
...KANSAS...SOUTHEAST NEBRASKA AND IOWA...

CITY           SKY/WX    TMP DP  RH WIND       PRES   REMARKS
TOPEKA         CLOUDY    68  65  90 E9        30.05S
MANHATTAN      CLOUDY    68  65  90 NE3       30.02F
EMPORIA        CLOUDY    65  63  93 SW13      30.07R
CHANUTE        CLOUDY    68  66  93 CALM      30.07R
WICHITA        CLOUDY    69  64  84 SE16      30.01S
OMAHA          CLOUDY    68  58  70 S13       30.03F
LINCOLN        LGT RAIN  65  62  90 S9        30.03F
FALLS CITY     LGT RAIN  66  62  87 E10       30.03
LAMONI         CLOUDY    72  60  66 S12G21    30.13R
DES MOINES     CLOUDY    74  59  59 S15       30.10F

$$




USA.gov is the U.S. government's official web portal to all federal, state and local government web resources and services.